Hettinger, ND

8:07 PM MDT on July 24, 2017 (GMT -0600)
Hettinger Municipal

Weather History for KHEI - October, 2013

Change the Weather History Date:

Thursday, October 17, 2013

  Actual Average Record
Temperature  
Mean Temperature 36 °F -  
Max Temperature 46 °F 56 °F 84 °F (1997)
Min Temperature 25 °F 29 °F 17 °F (1999)
Degree Days  
Heating Degree Days 29 22  
Month to date heating degree days 387 326  
Since 1 July heating degree days 548 697  
Cooling Degree Days 0 0  
Month to date cooling degree days 0 0  
Year to date cooling degree days 320 376  
Moisture  
Dew Point 32 °F    
Average Humidity 93    
Maximum Humidity 96    
Minimum Humidity 75    
Precipitation  
Precipitation 0.09 in 0.05 in 0.22 in (2006)
Month to date precipitation 4.36 0.56  
Year to date precipitation 24.34 14.48  
Sea Level Pressure  
Sea Level Pressure 30.05 in    
Wind  
Wind Speed 10 mph (NW)    
Max Wind Speed 23 mph    
Max Gust Speed 28 mph    
Visibility 9 miles    
Events Rain , Snow    
T = Trace of Precipitation, MM = Missing Value Source: NWS Daily Summary

Daily Weather History Graph

Daily Weather History Graph

Search for Another Location

Airport or City:

Trip Planner

Search our weather history database for the weather conditions in past years. The results will help you decide how hot, cold, wet, or windy it might be!

Date:

Astronomy

Oct. 17, 2013 Rise Set
Actual Time 7:10 AM MDT 6:00 PM MDT
Civil Twilight 6:40 AM MDT 6:30 PM MDT
Nautical Twilight 6:05 AM MDT 7:05 PM MDT
Astronomical Twilight 5:31 AM MDT 7:39 PM MDT
Moon 5:17 PM MDT (10/17) 5:41 AM MDT (10/17)
Length of Visible Light 11h 50m
Length of Day
10h 49m
Waxing Gibbous, 98% of the Moon is Illuminated
Oct 17
Waxing Gibbous
Oct 18
Full
Oct 26
Last Quarter
Nov 3
New
Nov 9
First Quarter

Hourly Weather History & Observations

Time (MDT) Temp. Windchill Dew Point Humidity Pressure Visibility Wind Dir Wind Speed Gust Speed Precip Events Conditions
12:53 AM 37.9 °F 27.3 °F 36.0 °F 93% 30.01 in 8.0 mi NNW 21.9 mph 28.8 mph 0.01 in Rain Light Rain
1:01 AM 37.4 °F 26.9 °F 35.6 °F 93% 29.99 in 8.0 mi NNW 20.7 mph 28.8 mph 0.00 in Rain Light Rain
1:08 AM 37.4 °F 27.5 °F 35.6 °F 93% 29.99 in 7.0 mi NNW 18.4 mph 24.2 mph 0.01 in Rain Light Rain
1:13 AM 37.4 °F 27.8 °F 35.6 °F 93% 30.00 in 6.0 mi NNW 17.3 mph 27.6 mph 0.01 in Rain Light Rain
1:25 AM 35.6 °F 25.2 °F 35.6 °F 100% 30.00 in 5.0 mi NW 18.4 mph - 0.03 in Rain Rain
1:32 AM 35.6 °F 24.8 °F 33.8 °F 93% 30.00 in 5.0 mi NNW 19.6 mph 27.6 mph 0.04 in Rain Rain
1:39 AM 35.6 °F 25.5 °F 33.8 °F 93% 30.00 in 5.0 mi NNW 17.3 mph 26.5 mph 0.05 in Rain Rain
1:53 AM 35.1 °F 25.5 °F 34.0 °F 96% 30.04 in 8.0 mi NNW 15.0 mph - 0.06 in Rain Light Rain
2:17 AM 33.8 °F 24.3 °F 33.8 °F 100% 30.01 in 9.0 mi NW 13.8 mph - 0.01 in Snow Light Snow
2:34 AM 33.8 °F 24.8 °F 33.8 °F 100% 30.01 in 8.0 mi NW 12.7 mph - 0.02 in Snow Light Snow
2:46 AM 33.8 °F 24.8 °F 33.8 °F 100% 30.02 in 10.0 mi NW 12.7 mph - 0.03 in Rain Light Freezing Rain
2:53 AM 34.0 °F 25.0 °F 33.1 °F 96% 30.05 in 10.0 mi NW 12.7 mph - 0.03 in Rain Light Freezing Rain
3:01 AM 33.8 °F 24.3 °F 33.8 °F 100% 30.02 in 10.0 mi NW 13.8 mph - 0.00 in Rain Light Freezing Rain
3:05 AM 33.8 °F 24.8 °F 33.8 °F 100% 30.02 in 10.0 mi NW 12.7 mph - 0.00 in Rain Light Freezing Rain
3:12 AM 33.8 °F 24.3 °F 33.8 °F 100% 30.02 in 10.0 mi NW 13.8 mph - 0.00 in   Overcast
3:53 AM 35.1 °F 25.5 °F 33.1 °F 92% 30.05 in 10.0 mi NW 15.0 mph - 0.00 in   Overcast
4:33 AM 33.8 °F 23.5 °F 32.0 °F 93% 30.04 in 10.0 mi NNW 16.1 mph - 0.00 in   Overcast
4:53 AM 34.0 °F 25.0 °F 32.0 °F 92% 30.07 in 8.0 mi NW 12.7 mph - 0.00 in   Overcast
5:53 AM 33.1 °F 23.0 °F 30.9 °F 92% 30.11 in 10.0 mi NW 15.0 mph - N/A   Partly Cloudy
6:53 AM 33.1 °F 23.9 °F 30.0 °F 89% 30.13 in 10.0 mi NW 12.7 mph - N/A   Mostly Cloudy
7:53 AM 33.1 °F 23.9 °F 30.0 °F 89% 30.16 in 10.0 mi NW 12.7 mph - N/A   Overcast
8:53 AM 35.1 °F 26.4 °F 28.9 °F 78% 30.17 in 10.0 mi NW 12.7 mph - N/A   Overcast
9:53 PM 27.0 °F - 23.0 °F 85% 30.13 in 10.0 mi Calm Calm - N/A   Clear
10:53 PM 27.0 °F 23.0 °F 23.0 °F 85% 30.12 in 10.0 mi WNW 3.5 mph - N/A   Partly Cloudy
11:53 PM 28.0 °F 22.8 °F 24.1 °F 85% 30.11 in 10.0 mi WNW 4.6 mph - N/A   Overcast